This demonstration page uses our WeatherBlox Daily Observations layout. Learn more.

Left ArrowRight Arrow

41.55636, -103.73856

Hourly Observations for December 17, 2020

Temp ( °F °C ) Dew Point ( °F °C ) Humidity (%) Winds ( mph kmh ) Pressure ( in mb ) Visibility ( mi km ) Precip ( " mm )
12:58 am 00:58 Clear 22 -5.6 17 -8.3 82 82 SW 7 11 30.28 1025 10 16 0.00 0.00
1:58 am 01:58 Clear 23 -5.1 16 -9.1 74 74 SW 10 17 30.26 1025 10 16 0.00 0.00
2:58 am 02:58 Clear 22 -5.3 16 -8.8 77 77 SW 7 11 30.26 1025 10 16 0.00 0.00
3:56 am 03:56 Clear 23 -4.8 15 -9.3 71 71 SSW 12 19 30.08 1019 10 16 0.00 0.00
4:58 am 04:58 Clear 22 -5.3 14 -9.8 71 71 SSW 12 19 30.06 1018 10 16 0.00 0.00
5:58 am 05:58 Clear 25 -3.9 15 -9.2 67 67 WSW 6 9 30.06 1018 10 16 0.00 0.00
6:56 am 06:56 Partly Cloudy 26 -3.3 15 -9.4 63 63 SW 15 24 30.05 1018 10 16 0.00 0.00
7:57 am 07:57 Sunny 27 -2.6 15 -9.4 60 60 SW 17 28 30.04 1017 10 16 0.00 0.00
8:56 am 08:56 Sunny 32 0.2 17 -8.4 53 53 WSW 13 20 30.00 1016 10 16 0.00 0.00
9:56 am 09:56 Sunny 36 2.3 18 -7.9 47 47 WSW 13 20 29.99 1016 10 16 0.00 0.00
10:56 am 10:56 Mostly Cloudy 40 4.4 17 -8.4 39 39 WSW 16 26 29.94 1014 10 16 0.00 0.00
11:56 am 11:56 Sunny 44 6.7 17 -8.1 34 34 SSW 23 37 29.87 1012 10 16 0.00 0.00
12:58 pm 12:58 Sunny 46 7.9 16 -8.8 30 30 SSW 20 31 29.85 1011 10 16 0.00 0.00
1:56 pm 13:56 Mostly Cloudy 46 7.9 16 -8.8 30 30 SSW 18 30 29.82 1010 10 16 0.00 0.00
2:56 pm 14:56 Mostly Sunny 43 6.2 14 -9.9 31 31 SSW 17 28 29.82 1010 10 16 0.00 0.00
3:56 pm 15:56 Mostly Cloudy 42 5.5 18 -7.8 38 38 SW 7 11 29.81 1010 10 16 0.00 0.00
4:56 pm 16:56 Cloudy 43 6 15 -9.5 32 32 SSW 5 7 29.80 1009 10 16 0.00 0.00
5:56 pm 17:56 Mostly Cloudy 41 5 17 -8.5 37 37 Calm 29.80 1009 10 16 0.00 0.00
6:56 pm 18:56 Cloudy 41 5.1 14 -10.2 32 32 E 6 9 29.76 1008 10 16 0.00 0.00
7:56 pm 19:56 Mostly Cloudy 39 4 16 -8.9 39 39 SSW 5 7 29.76 1008 10 16 0.00 0.00
8:56 pm 20:56 Cloudy 36 2.4 19 -7.2 50 50 N 5 7 29.76 1008 10 16 0.00 0.00
9:56 pm 21:56 Cloudy 37 2.5 19 -7.3 49 49 Calm 29.74 1007 10 16 0.00 0.00
10:58 pm 22:58 Mostly Cloudy 36 2.1 21 -5.9 56 56 W 5 7 29.82 1010 10 16 0.00 0.00
11:58 pm 23:58 Mostly Cloudy 35 1.6 22 -5.7 59 59 WSW 5 7 29.84 1010 10 16 0.00 0.00

Powered by AerisWeather